Flag for Albania Weather past 2 weeks in Durrës, Albania

Now
99 °F

Passing clouds.


Feels Like: 98 °F
Forecast: 79 / 91 °F
Wind: 10 mph from North

Location: Tirana Airport

Current Time: Aug 5, 2015 at 3:02:28 PM

Latest Report: Aug 5, 2015 at 2:20 PM


Visibility: N/A

Pressure: 29.86 "Hg

Humidity: 25%

Dew point: 57 °F

Location of DurrësLocation

Historic Weather in Durrës — Graph

°F

Durrës temperature yesterday

Maximum temperature yesterday: 97 °F (at 1:20 PM)
Minimum temperature yesterday: 70 °F (at 4:20 AM)
Average temperature yesterday: 82 °F

Past Weeks' High & Low Weather Summary

 TemperatureHumidityPressure
High104 °F (Jul 21, 2:50 PM)94% (Aug 2, 1:50 AM)30.01 "Hg (Aug 2, 1:50 AM)
Low68 °F (Jul 27, 4:20 AM)22% (Jul 21, 3:20 PM)29.71 "Hg (Jul 27, 5:20 PM)
Average83 °F58%29.83 "Hg
* Reported Jul 21 1:20 PM — Aug 5 1:50 PM, Durrës, Weather by CustomWeather, © 2015

Note: Actual official high and low records may vary slightly from our data, if they occured in-between our weather recording intervals... More about our weather records

Advertising

Durrës weather history for previous 24 hours

 ConditionsComfort  
Time TempWeatherWind HumidityBarometerVisibility
1:50 PM
Wed, Aug 5
97 °FPassing clouds.12 mph25%29.86 "HgN/A
1:20 PM97 °FPassing clouds.9 mph30%29.86 "HgN/A
12:50 PM93 °FPassing clouds.7 mph32%29.89 "HgN/A
12:20 PM93 °FSunny.8 mph34%29.89 "Hg10 mi
11:50 AM93 °FPassing clouds.6 mph36%29.89 "HgN/A
11:20 AM91 °FSunny.5 mph38%29.89 "Hg10 mi
10:50 AM91 °FSunny.2 mph38%29.89 "Hg10 mi
10:20 AM90 °FSunny.2 mph41%29.89 "Hg10 mi
9:50 AM90 °FSunny.1 mph46%29.89 "Hg10 mi
9:20 AM86 °FSunny.2 mph49%29.89 "Hg10 mi
8:50 AM82 °FSunny.No wind48%29.89 "Hg10 mi
8:20 AM79 °FSunny.2 mph58%29.89 "Hg10 mi
7:50 AM77 °FSunny.2 mph61%29.89 "Hg10 mi
7:20 AM73 °FSunny.3 mph69%29.89 "Hg10 mi
6:20 AM70 °FClear.2 mph78%29.89 "Hg10 mi
5:50 AM70 °FClear.1 mph78%29.89 "Hg10 mi
5:20 AM70 °FClear.3 mph73%29.89 "Hg10 mi
4:50 AM70 °FPassing clouds.3 mph73%29.89 "HgN/A
4:20 AM73 °FClear.2 mph69%29.89 "Hg10 mi
3:50 AM72 °FClear.3 mph69%29.89 "Hg10 mi
3:20 AM73 °FPassing clouds.3 mph69%29.89 "HgN/A
2:50 AM72 °FPassing clouds.3 mph73%29.89 "HgN/A
2:20 AM73 °FPassing clouds.3 mph69%29.89 "HgN/A
1:50 AM73 °FPassing clouds.3 mph74%29.89 "HgN/A
1:20 AM73 °FPassing clouds.3 mph69%29.89 "HgN/A
12:50 AM73 °FClear.5 mph74%29.89 "Hg10 mi
12:20 AM75 °FClear.2 mph69%29.89 "Hg10 mi
11:50 PM
Tue, Aug 4
75 °FClear.5 mph69%29.89 "Hg10 mi
11:20 PM75 °FPassing clouds.3 mph69%29.89 "HgN/A
10:50 PM77 °FClear.No wind61%29.89 "Hg10 mi
10:20 PM75 °FClear.2 mph69%29.89 "Hg10 mi
9:50 PM77 °FPassing clouds.2 mph61%29.92 "HgN/A
9:20 PM77 °FPassing clouds.No wind61%29.89 "HgN/A
8:50 PM77 °FScattered clouds.2 mph57%29.89 "HgN/A
8:20 PM81 °FScattered clouds.1 mph48%29.89 "HgN/A
7:50 PM81 °FScattered clouds.3 mph48%29.89 "HgN/A
7:20 PM82 °FScattered clouds.5 mph55%29.86 "HgN/A
6:50 PM84 °FBroken clouds.6 mph51%29.89 "HgN/A
6:20 PM86 °FBroken clouds.8 mph52%29.86 "HgN/A
5:50 PM90 °FBroken clouds.10 mph41%29.86 "HgN/A
5:20 PM91 °FPassing clouds.12 mph41%29.86 "HgN/A
4:50 PM91 °FPassing clouds.13 mph46%29.86 "HgN/A
4:20 PM91 °FPassing clouds.12 mph44%29.86 "HgN/A
3:50 PM91 °FScattered clouds.12 mph38%29.86 "HgN/A
3:20 PM93 °FScattered clouds.10 mph32%29.86 "HgN/A
Weather by CustomWeather, © 2015

See weather overviewHow to use our weather pages